Orangeburg, SC

12:33 PM EDT on May 26, 2017 (GMT -0400)
Orangeburg Municipal

Weather History for KOGB - December, 2013

Change the Weather History Date:

Thursday, December 5, 2013

  Actual Average Record
Temperature  
Mean Temperature 65 °F 50 °F  
Max Temperature 72 °F 62 °F 81 °F (1978)
Min Temperature 57 °F 39 °F 19 °F (1979)
Degree Days  
Heating Degree Days 0 15  
Month to date heating degree days 31 72  
Since 1 July heating degree days 427 441  
Cooling Degree Days 0 0  
Month to date cooling degree days 0 0  
Year to date cooling degree days 2042 2102  
Growing Degree Days 14 (Base 50)    
Moisture  
Dew Point 61 °F    
Average Humidity 91    
Maximum Humidity 97    
Minimum Humidity 78    
Precipitation  
Precipitation 0.06 in 0.13 in 1.68 in (1953)
Month to date precipitation 0.70 0.67  
Year to date precipitation 51.86 44.08  
Sea Level Pressure  
Sea Level Pressure 30.10 in    
Wind  
Wind Speed 5 mph (South)    
Max Wind Speed 12 mph    
Max Gust Speed 16 mph    
Visibility 5 miles    
Events Fog , Rain    
T = Trace of Precipitation, MM = Missing Value Source: NWS Daily Summary

Daily Weather History Graph

Daily Weather History Graph

Search for Another Location

Airport or City:

Trip Planner

Search our weather history database for the weather conditions in past years. The results will help you decide how hot, cold, wet, or windy it might be!

Date:

Astronomy

Dec. 05, 2013 Rise Set
Actual Time 7:12 AM EST 5:15 PM EST
Civil Twilight 6:45 AM EST 5:42 PM EST
Nautical Twilight 6:14 AM EST 6:13 PM EST
Astronomical Twilight 5:44 AM EST 6:43 PM EST
Moon 9:35 AM EST (12/5) 8:29 PM EST (12/5)
Length of Visible Light 10h 57m
Length of Day
10h 02m
Waxing Crescent, 10% of the Moon is Illuminated
Dec 5
Waxing Crescent
Dec 9
First Quarter
Dec 17
Full
Dec 25
Last Quarter
Jan 1
New

Hourly Weather History & Observations

Time (EST) Temp. Dew Point Humidity Pressure Visibility Wind Dir Wind Speed Gust Speed Precip Events Conditions
12:38 AM 57.9 °F 55.9 °F 93% 30.11 in 0.2 mi Calm Calm - N/A Fog Fog
12:53 AM 59.0 °F 57.0 °F 93% 30.10 in 0.5 mi East 5.8 mph - N/A Fog Fog
1:02 AM 59.0 °F 57.0 °F 93% 30.10 in 1.2 mi ESE 3.5 mph - N/A   Overcast
1:06 AM 59.0 °F 57.0 °F 93% 30.10 in 2.0 mi Calm Calm - N/A   Overcast
1:14 AM 59.0 °F 57.0 °F 93% 30.10 in 1.5 mi Calm Calm - N/A   Overcast
1:36 AM 57.9 °F 55.9 °F 93% 30.09 in 0.5 mi SE 3.5 mph - N/A Fog Fog
1:48 AM 59.0 °F 57.2 °F 94% 30.09 in 1.2 mi SE 3.5 mph - N/A   Overcast
1:53 AM 59.0 °F 57.9 °F 96% 30.09 in 1.0 mi SSE 3.5 mph - N/A   Overcast
2:00 AM 59.0 °F 57.9 °F 96% 30.09 in 0.8 mi SSE 3.5 mph - N/A   Overcast
2:37 AM 60.1 °F 57.9 °F 93% 30.09 in 1.5 mi SSE 3.5 mph - N/A   Overcast
2:43 AM 60.1 °F 57.9 °F 93% 30.09 in 2.0 mi Calm Calm - N/A   Overcast
2:51 AM 59.0 °F 57.2 °F 94% 30.09 in 2.0 mi Calm Calm - N/A   Mostly Cloudy
2:53 AM 59.0 °F 57.9 °F 96% 30.09 in 1.5 mi Calm Calm - N/A   Mostly Cloudy
3:08 AM 60.1 °F 57.9 °F 93% 30.09 in 2.0 mi Calm Calm - N/A   Mostly Cloudy
3:25 AM 60.1 °F 57.9 °F 93% 30.10 in 3.0 mi Calm Calm - N/A   Overcast
3:43 AM 60.1 °F 57.9 °F 93% 30.10 in 2.5 mi South 3.5 mph - N/A   Overcast
3:53 AM 60.1 °F 57.9 °F 93% 30.09 in 2.5 mi Calm Calm - N/A   Mostly Cloudy
4:18 AM 60.1 °F 57.9 °F 93% 30.10 in 3.0 mi Calm Calm - N/A   Mostly Cloudy
4:53 AM 60.1 °F 57.9 °F 93% 30.10 in 4.0 mi WSW 4.6 mph - N/A   Overcast
5:53 AM 61.0 °F 59.0 °F 93% 30.10 in 9.0 mi South 4.6 mph - N/A   Mostly Cloudy
6:53 AM 60.1 °F 57.0 °F 90% 30.12 in 8.0 mi SSW 4.6 mph - N/A   Scattered Clouds
7:53 AM 61.0 °F 59.0 °F 93% 30.13 in 7.0 mi SSW 4.6 mph - N/A   Clear
8:53 AM 64.0 °F 61.0 °F 90% 30.15 in 10.0 mi SSW 5.8 mph - N/A   Clear
9:53 AM 66.9 °F 62.1 °F 84% 30.15 in 10.0 mi South 5.8 mph - N/A   Clear
10:53 AM 70.0 °F 62.1 °F 76% 30.15 in 10.0 mi SSW 6.9 mph - N/A   Overcast
11:53 AM 72.0 °F 62.1 °F 71% 30.13 in 10.0 mi SSW 8.1 mph - 0.00 in Rain Light Rain
12:53 PM 72.0 °F 62.1 °F 71% 30.12 in 10.0 mi SSW 5.8 mph - 0.00 in   Overcast
1:53 PM 69.1 °F 64.0 °F 84% 30.10 in 4.0 mi SSW 10.4 mph - 0.01 in Rain Light Rain
2:44 PM 66.9 °F 64.0 °F 90% 30.10 in 2.0 mi SW 8.1 mph - 0.03 in Rain Heavy Rain
2:53 PM 66.9 °F 64.9 °F 93% 30.09 in 4.0 mi SSW 8.1 mph - 0.03 in Rain Light Rain
3:08 PM 68.0 °F 64.9 °F 90% 30.09 in 4.0 mi SSW 10.4 mph - 0.01 in Rain Light Rain
3:13 PM 68.0 °F 64.9 °F 90% 30.09 in 5.0 mi SSW 9.2 mph - 0.01 in Rain Light Rain
3:37 PM 66.9 °F 64.9 °F 93% 30.09 in 2.5 mi South 10.4 mph - 0.02 in Rain Rain
3:43 PM 66.9 °F 64.9 °F 93% 30.09 in 3.0 mi South 8.1 mph - 0.02 in Rain Light Rain
3:53 PM 68.0 °F 64.9 °F 90% 30.08 in 7.0 mi South 9.2 mph - 0.02 in Rain Light Rain
4:07 PM 68.0 °F 64.9 °F 90% 30.09 in 7.0 mi South 8.1 mph - 0.00 in Rain Light Rain
4:18 PM 68.0 °F 64.9 °F 90% 30.09 in 8.0 mi SSW 9.2 mph - 0.00 in   Overcast
4:53 PM 68.0 °F 64.9 °F 90% 30.09 in 8.0 mi SSW 6.9 mph - 0.00 in   Overcast
5:41 PM 66.9 °F 64.9 °F 93% 30.10 in 10.0 mi South 4.6 mph - N/A   Overcast
5:53 PM 66.9 °F 64.9 °F 93% 30.09 in 10.0 mi South 4.6 mph - N/A   Overcast
6:24 PM 66.9 °F 64.9 °F 93% 30.10 in 8.0 mi Calm Calm - N/A   Overcast
6:53 PM 66.9 °F 64.9 °F 93% 30.09 in 6.0 mi South 3.5 mph - N/A   Overcast
7:53 PM 66.9 °F 64.9 °F 93% 30.09 in 7.0 mi Calm Calm - N/A   Overcast
8:11 PM 66.9 °F 64.0 °F 90% 30.10 in 6.0 mi Calm Calm - N/A   Mostly Cloudy
8:53 PM 66.9 °F 64.0 °F 90% 30.09 in 9.0 mi Variable 3.5 mph - N/A   Mostly Cloudy
9:53 PM 66.9 °F 63.0 °F 87% 30.09 in 10.0 mi South 8.1 mph - N/A   Overcast
10:53 PM 66.9 °F 63.0 °F 87% 30.10 in 10.0 mi South 6.9 mph - N/A   Clear
11:53 PM 66.0 °F 62.1 °F 87% 30.10 in 10.0 mi SSW 6.9 mph - N/A   Clear